北九州空港の過去48時間の天気

北九州空港 (Kitakyushu)

現在時刻: 1/22 09:45 JST (1/22 00:45 UTC) 以下の時間は現地時間です。

過去48時間のMETAR気象情報
時間 風向 風速(m/s) 視程 気温(℃) 湿度(%) 気圧(hPa) 天気現象
22 09:00 西北西 2 10km以上 8 81 1026
22 08:00 不定 1 10km以上 8 76 1026
22 07:00 静穏 0 10km以上 7 76 1026
22 06:00 不定 1 10km以上 7 76 1026
22 05:00 南東 2 10km以上 7 76 1026
22 04:00 不定 1 10km以上 7 76 1026
22 03:00 南南東 1 10km以上 6 81 1026
22 02:00 静穏 0 10km以上 7 81 1027
22 01:00 北西 2 10km以上 7 81 1027
22 00:00 2 10km以上 7 81 1027
21 23:00 北北西 2 10km以上 6 81 1028
21 22:00 北北東 2 10km以上 7 76 1028
21 21:00 北北西 2 10km以上 7 70 1028
21 20:00 北北東 3 10km以上 8 66 1028
21 19:00 4 10km以上 8 61 1028
21 18:00 北北東 3 10km以上 10 54 1027
21 17:00 不定 2 10km以上 10 50 1027
21 16:00 北西 2 10km以上 11 43 1026
21 15:00 北北西 3 10km以上 11 43 1026
21 14:00 北北東 4 10km以上 11 43 1026
21 13:00 4 10km以上 11 40 1027
21 12:00 北北東 3 10km以上 10 43 1028
21 11:00 3 10km以上 9 46 1029
21 10:00 5 10km以上 9 46 1029
21 09:00 6 10km以上 8 49 1028
21 08:00 北北西 6 10km以上 7 57 1027
21 07:00 北北西 5 10km以上 8 53 1026
21 06:00 北西 5 10km以上 8 53 1024
21 05:00 北西 6 10km以上 9 50 1023
21 04:00 西北西 6 10km以上 9 50 1023
21 03:00 西 4 10km以上 9 57 1023
21 02:00 西 5 10km以上 9 53 1023
21 01:00 西南西 7 10km以上 8 57 1022
21 00:00 西 7 10km以上 9 53 1022
20 23:00 西 7 10km以上 9 53 1022
20 22:00 西 7 10km以上 9 57 1022
20 21:00 西 9 10km以上 9 53 1021
20 20:00 西 8 10km以上 9 53 1021
20 19:00 西 6 10km以上 9 53 1021
20 18:00 西 6 10km以上 9 53 1020
20 17:00 西 5 10km以上 9 57 1020
20 16:00 西 6 10km以上 9 57 1019
20 15:00 西 7 10km以上 9 57 1019
20 14:00 西 7 10km以上 9 53 1019
20 13:00 西 7 10km以上 10 46 1020
20 12:00 西 6 10km以上 9 53 1020
20 11:00 西 7 10km以上 9 53 1021
20 10:00 西 5 10km以上 9 53 1021
RJFR 220000Z 29003KT 9999 FEW025 BKN045 BKN090 08/05 Q1026
RJFR 212300Z VRB02KT 9999 FEW008 BKN045 BKN090 08/04 Q1026
RJFR 212200Z 00000KT 9999 FEW030 BKN090 BKN140 07/03 Q1026
RJFR 212100Z VRB02KT 9999 FEW030 BKN100 07/03 Q1026
RJFR 212000Z 14004KT 110V180 9999 FEW030 SCT120 BKN150 07/03 Q1026
RJFR 211900Z VRB02KT 9999 FEW030 SCT120 BKN150 07/03 Q1026
RJFR 211800Z 15002KT 9999 FEW030 SCT130 BKN160 06/03 Q1026
RJFR 211700Z 00000KT 9999 FEW030 BKN160 07/04 Q1027
RJFR 211600Z 31003KT 9999 FEW030 BKN160 07/04 Q1027
RJFR 211500Z 35003KT 320V030 9999 FEW030 SCT180 07/04 Q1027
RJFR 211400Z 34003KT 300V010 9999 FEW050 06/03 Q1028
RJFR 211300Z 02004KT 9999 FEW050 07/03 Q1028
RJFR 211200Z 34004KT CAVOK 07/02 Q1028
RJFR 211100Z 03006KT CAVOK 08/02 Q1028
RJFR 211000Z 01008KT CAVOK 08/01 Q1028
RJFR 210900Z 03006KT 9999 FEW040 10/01 Q1027
RJFR 210800Z VRB03KT 9999 FEW040 10/00 Q1027
RJFR 210700Z 32003KT 9999 FEW030 11/M01 Q1026
RJFR 210600Z 33005KT 9999 FEW030 11/M01 Q1026
RJFR 210500Z 02007KT 9999 FEW030 11/M01 Q1026
RJFR 210400Z 35007KT 9999 FEW030 11/M02 Q1027
RJFR 210300Z 02006KT 9999 FEW030 10/M02 Q1028
RJFR 210200Z 35006KT 310V010 9999 FEW030 09/M02 Q1029
RJFR 210100Z 01009KT 9999 FEW030 SCT040 09/M02 Q1029
RJFR 210000Z 36012KT 9999 FEW030 SCT040 08/M02 Q1028
RJFR 202300Z 34012KT 9999 FEW045 07/M01 Q1027
RJFR 202200Z 33010KT 9999 SCT045 08/M01 Q1026
RJFR 202100Z 31010KT 9999 FEW030 SCT045 08/M01 Q1024
RJFR 202000Z 31012KT 9999 FEW030 BKN045 09/M01 Q1023
RJFR 201900Z 30011KT 9999 FEW030 BKN045 09/M01 Q1023
RJFR 201800Z 27008KT 9999 FEW030 BKN045 09/01 Q1023
RJFR 201700Z 27009KT 9999 FEW030 BKN045 09/00 Q1023
RJFR 201600Z 25013KT 9999 FEW030 SCT045 08/00 Q1022
RJFR 201500Z 27014KT 9999 FEW040 09/00 Q1022
RJFR 201400Z 28014KT 9999 FEW030 BKN/// 09/00 Q1022
RJFR 201300Z 27014KT 9999 FEW030 SCT045 09/01 Q1022
RJFR 201200Z 28017KT 9999 FEW030 09/M00 Q1021
RJFR 201100Z 27016KT 9999 FEW030 SCT050 09/M00 Q1021
RJFR 201000Z 27012KT 9999 FEW025 SCT040 BKN050 09/M00 Q1021
RJFR 200900Z 26012KT 9999 FEW025 BKN050 09/M00 Q1020
RJFR 200800Z 28009KT 9999 FEW025 BKN040 09/01 Q1020
RJFR 200700Z 27011KT 9999 FEW025 SCT035 BKN045 09/01 Q1019
RJFR 200600Z 27013KT 9999 FEW030 BKN045 09/01 Q1019
RJFR 200500Z 28014KT 9999 FEW030 BKN040 BKN050 09/00 Q1019
RJFR 200400Z 28013KT 9999 FEW025 BKN045 10/M01 Q1020
RJFR 200300Z 27012KT 9999 FEW025 BKN050 09/M00 Q1020
RJFR 200200Z 26014KT 250V310 9999 FEW025 SCT040 BKN050 09/00 Q1021
RJFR 200100Z 27010KT 9999 FEW020 BKN050 09/M00 Q1021